Date String (YYYY-MM-DD hh:mm:ss) UTC,Instrument flags,absolute air pressure of the measurement (hPa),sample flow rate (lpm),inlet stack bypass flow (lpm),air temperature of the measurement (°C),ambient temperature measured by the external sensor (°C),aerosol sample conditioner tube jacket temperature (°C),OPC LED temperature (°C),internal box temperature (°C),relative humidity of the measurement (%),span deviation,mass concentration of particles derived from Lorenz-Mie calculation of OPC scattering (μg/m³),mass concentration of particles derived from Lorenz-Mie calculation of OPC scattering (μg/m³),mass concentration of particles derived from Lorenz-Mie calculation of OPC scattering (μg/m³)
DateTimeUTC,F1_M11,P_M11,Q1_M11,Q2_M11,T1_M11,T2_M11,T3_M11,T4_M11,T5_M11,U1_M11,ZSPAN_M11,X2_M11,X0_M11,X1_M11
2023-10-25 16:00:00,SystemResetWarning,0827.0,5.01,000.00,028.0,026.5,000.0,036.4,029.7,22.8,-003.0,0009.74,0013.44,0008.88
2023-10-25 16:01:00,SystemResetWarning,0826.9,5.00,000.00,028.0,026.5,000.0,036.4,029.7,22.9,-003.0,0009.75,0013.49,0008.87
2023-10-25 16:02:00,SystemResetWarning,0827.0,5.00,000.00,028.0,026.5,000.0,036.4,029.7,22.9,-002.8,0009.75,0013.50,0008.89
2023-10-25 16:03:00,SystemResetWarning,0827.0,4.99,000.00,028.0,026.5,000.0,036.4,029.7,22.9,-002.7,0009.80,0013.60,0008.90
2023-10-25 16:04:00,SystemResetWarning,0827.0,4.99,000.00,028.0,026.5,000.0,036.4,029.7,23.0,-002.6,0009.87,0013.87,0008.89
2023-10-25 16:05:00,SystemResetWarning,0827.0,4.99,000.00,028.0,026.5,000.0,036.4,029.7,22.9,-002.8,0009.90,0014.04,0008.89
2023-10-25 16:06:00,SystemResetWarning,0827.0,5.00,000.00,028.0,026.5,000.0,036.4,029.7,22.8,-002.8,0009.92,0014.15,0008.91
2023-10-25 16:07:00,SystemResetWarning,0826.9,5.00,000.00,028.0,026.5,000.0,036.4,029.7,22.7,-002.7,0009.96,0014.22,0008.91
2023-10-25 16:08:00,SystemResetWarning,0826.9,5.00,000.00,028.0,026.5,000.0,036.4,029.7,22.6,-002.6,0010.03,0014.36,0008.94
2023-10-25 16:09:00,SystemResetWarning,0826.9,5.00,000.00,028.0,026.5,000.0,036.4,029.7,22.6,-002.3,0010.04,0014.38,0008.94
2023-10-25 16:10:00,SystemResetWarning,0826.9,5.00,000.00,028.0,026.5,000.0,036.4,029.7,22.7,-002.4,0010.04,0014.49,0008.95
2023-10-25 16:11:00,SystemResetWarning,0826.9,4.99,000.00,028.0,026.5,000.0,036.4,029.7,22.7,-002.5,0010.06,0014.55,0008.98
2023-10-25 16:12:00,SystemResetWarning,0826.8,4.99,000.00,028.0,026.5,000.0,036.4,029.7,22.7,-002.5,0010.12,0014.64,0009.02
2023-10-25 16:13:00,SystemResetWarning,0826.8,5.00,000.00,028.0,026.5,000.0,036.4,029.7,22.7,-002.7,0010.19,0014.83,0009.05
2023-10-25 16:14:00,SystemResetWarning,0826.8,5.00,000.00,028.0,026.5,000.0,036.4,029.7,22.8,-002.5,0010.23,0015.02,0009.06
2023-10-25 16:15:00,SystemResetWarning,0826.9,5.01,000.00,028.0,026.5,000.0,036.4,029.7,22.8,-002.4,0010.21,0014.96,0009.08
2023-10-25 16:16:00,SystemResetWarning,0826.8,5.00,000.00,028.0,026.5,000.0,036.4,029.7,22.8,-002.3,0010.25,0014.93,0009.10
2023-10-25 16:17:00,SystemResetWarning,0826.8,5.01,000.00,028.0,026.5,000.0,036.4,029.7,22.8,-002.2,0010.35,0015.32,0009.13
2023-10-25 16:18:00,SystemResetWarning,0826.8,5.01,000.00,028.0,026.5,000.0,036.4,029.7,22.7,-002.2,0010.36,0015.54,0009.14
2023-10-25 16:19:00,SystemResetWarning,0826.7,5.00,000.00,028.0,026.5,000.0,036.4,029.6,22.5,-002.3,0010.37,0015.50,0009.13
2023-10-25 16:20:00,SystemResetWarning,0826.6,5.00,000.00,028.0,026.4,000.0,036.4,029.6,22.5,-002.7,0010.44,0015.71,0009.16
2023-10-25 16:21:00,SystemResetWarning,0826.6,5.00,000.00,028.0,026.4,000.0,036.4,029.6,22.5,-003.0,0010.49,0015.76,0009.18
2023-10-25 16:22:00,SystemResetWarning,0826.6,5.00,000.00,028.0,026.4,000.0,036.4,029.6,22.6,-003.0,0010.51,0015.96,0009.20
2023-10-25 16:23:00,SystemResetWarning,0826.6,5.00,000.00,028.0,026.4,000.0,036.4,029.6,22.7,-002.9,0010.49,0015.99,0009.18
2023-10-25 16:24:00,SystemResetWarning,0826.6,5.00,000.00,028.0,026.4,000.0,036.4,029.6,22.7,-002.9,0010.52,0016.16,0009.17
2023-10-25 16:25:00,SystemResetWarning,0826.6,5.00,000.00,027.9,026.4,000.0,036.4,029.6,22.7,-003.0,0010.54,0016.13,0009.18
2023-10-25 16:26:00,SystemResetWarning,0826.6,5.00,000.00,028.0,026.4,000.0,036.4,029.7,22.8,-003.0,0010.61,0016.28,0009.21
2023-10-25 16:27:00,SystemResetWarning,0826.6,5.00,000.00,028.0,026.4,000.0,036.4,029.6,22.7,-002.9,0010.67,0016.63,0009.24
2023-10-25 16:28:00,SystemResetWarning,0826.5,5.00,000.00,028.0,026.4,000.0,036.4,029.6,22.7,-003.0,0010.67,0017.21,0009.26
2023-10-25 16:29:00,SystemResetWarning,0826.6,5.00,000.00,028.0,026.4,000.0,036.4,029.6,22.6,-003.0,0010.73,0017.73,0009.27
2023-10-25 16:30:00,SystemResetWarning,0826.6,5.00,000.00,028.0,026.5,000.0,036.4,029.7,22.6,-003.1,0010.77,0018.02,0009.31
2023-10-25 16:31:00,SystemResetWarning,0826.6,5.00,000.00,028.0,026.5,000.0,036.4,029.7,22.8,-002.8,0010.82,0018.17,0009.34
2023-10-25 16:32:00,SystemResetWarning,0826.6,5.00,000.00,028.0,026.5,000.0,036.4,029.7,22.7,-002.8,0010.91,0018.30,0009.39
2023-10-25 16:33:00,SystemResetWarning,0826.5,5.00,000.00,028.0,026.5,000.0,036.4,029.7,22.6,-002.8,0010.96,0018.21,0009.45
2023-10-25 16:34:00,SystemResetWarning,0826.4,5.00,000.00,028.0,026.5,000.0,036.4,029.7,22.6,-002.7,0011.10,0018.85,0009.52
2023-10-25 16:35:00,SystemResetWarning,0826.4,5.00,000.00,028.0,026.5,000.0,036.4,029.7,22.5,-002.8,0011.12,0018.79,0009.60
2023-10-25 16:36:00,SystemResetWarning,0826.3,5.00,000.00,028.0,026.5,000.0,036.4,029.7,22.5,-002.8,0011.16,0018.77,0009.66
2023-10-25 16:37:00,SystemResetWarning,0826.3,5.00,000.00,028.0,026.5,000.0,036.4,029.7,22.7,-002.7,0011.22,0018.92,0009.71
2023-10-25 16:38:00,SystemResetWarning,0826.3,5.00,000.00,028.0,026.5,000.0,036.4,029.7,22.7,-002.9,0011.28,0019.14,0009.74
2023-10-25 16:39:00,SystemResetWarning,0826.2,5.00,000.00,028.0,026.5,000.0,036.4,029.7,22.7,-002.9,0011.33,0018.60,0009.77
2023-10-25 16:40:00,SystemResetWarning,0826.3,5.00,000.00,028.0,026.5,000.0,036.4,029.7,22.7,-002.9,0011.34,0017.91,0009.82
2023-10-25 16:41:00,SystemResetWarning,0826.2,5.00,000.00,028.0,026.5,000.0,036.4,029.7,22.7,-002.9,0011.36,0017.58,0009.85
2023-10-25 16:42:00,SystemResetWarning,0826.2,5.00,000.00,028.0,026.5,000.0,036.4,029.7,22.7,-002.7,0011.30,0017.27,0009.86
2023-10-25 16:43:00,SystemResetWarning,0826.2,4.99,000.00,028.0,026.6,000.0,036.4,029.7,22.6,-002.3,0011.29,0017.42,0009.87
2023-10-25 16:44:00,SystemResetWarning,0826.2,5.00,000.00,028.0,026.6,000.0,036.5,029.8,22.3,-002.1,0011.31,0017.61,0009.89
2023-10-25 16:45:00,SystemResetWarning,0826.2,5.00,000.00,028.0,026.6,000.0,036.4,029.7,22.4,-002.2,0011.30,0017.42,0009.89
2023-10-25 16:46:00,SystemResetWarning,0826.2,5.00,000.00,028.0,026.5,000.0,036.4,029.7,22.7,-002.0,0011.37,0017.80,0009.91
2023-10-25 16:47:00,SystemResetWarning,0826.2,5.01,000.00,028.0,026.5,000.0,036.5,029.7,22.8,-001.9,0011.48,0018.13,0009.94
2023-10-25 16:48:00,SystemResetWarning,0826.2,5.00,000.00,028.0,026.6,000.0,036.5,029.7,22.9,-001.8,0011.53,0018.84,0009.97
2023-10-25 16:49:00,SystemResetWarning,0826.2,5.00,000.00,028.0,026.6,000.0,036.5,029.8,23.1,-001.5,0011.57,0019.81,0010.02
2023-10-25 16:50:00,SystemResetWarning,0826.2,5.00,000.00,028.1,026.6,000.0,036.5,029.8,23.0,-001.4,0011.54,0019.56,0010.04
2023-10-25 16:51:00,SystemResetWarning,0826.2,4.99,000.00,028.1,026.7,000.0,036.5,029.8,23.0,-001.4,0011.61,0020.09,0010.08
2023-10-25 16:52:00,SystemResetWarning,0826.2,5.00,000.00,028.1,026.7,000.0,036.5,029.8,22.9,-001.4,0011.66,0020.91,0010.10
2023-10-25 16:53:00,SystemResetWarning,0826.2,5.00,000.00,028.1,026.7,000.0,036.5,029.8,23.0,-001.5,0011.72,0021.07,0010.12
2023-10-25 16:54:00,SystemResetWarning,0826.2,5.00,000.00,028.1,026.7,000.0,036.5,029.8,22.9,-001.8,0011.77,0021.50,0010.16
2023-10-25 16:55:00,SystemResetWarning,0826.2,5.00,000.00,028.1,026.8,000.0,036.5,029.8,22.8,-001.8,0011.81,0021.77,0010.19
2023-10-25 16:56:00,SystemResetWarning,0826.2,5.00,000.00,028.1,026.8,000.0,036.5,029.8,22.7,-001.6,0011.81,0021.43,0010.21
2023-10-25 16:57:00,SystemResetWarning,0826.1,5.00,000.00,028.1,026.8,000.0,036.5,029.9,22.7,-001.9,0011.80,0021.12,0010.21
2023-10-25 16:58:00,SystemResetWarning,0826.2,5.00,000.00,028.2,026.9,000.0,036.5,029.9,22.7,-002.3,0011.82,0021.47,0010.23
2023-10-25 16:59:00,SystemResetWarning,0826.2,5.00,000.00,028.2,026.9,000.0,036.5,029.9,22.7,-002.5,0011.79,0021.19,0010.21
